Weather History for Trenton, NJ

Change the Weather History Date:

Tuesday, April 2, 2013

  Actual Average Record
Temperature  
Mean Temperature 38 °F 47 °F  
Max Temperature 44 °F 57 °F 83 °F (1967)
Min Temperature 32 °F 37 °F 21 °F (1911)
Degree Days  
Heating Degree Days 27 18  
Month to date heating degree days 42 37  
Since 1 July heating degree days 4428 4583  
Cooling Degree Days 0 0  
Month to date cooling degree days 0 0  
Year to date cooling degree days 0 0  
Moisture  
Dew Point 11 °F    
Average Humidity 34    
Maximum Humidity 43    
Minimum Humidity 24    
Precipitation  
Precipitation 0.00 in 0.16 in 2.51 in (2005)
Month to date precipitation T 0.31  
Year to date precipitation 7.21 9.92  
Sea Level Pressure  
Sea Level Pressure 30.00 in    
Wind  
Wind Speed 11 mph (NW)    
Max Wind Speed 22 mph    
Max Gust Speed 32 mph    
Visibility 10 miles    
Events      
T = Trace of Precipitation, MM = Missing Value Source: NWS Daily Summary

Daily Weather History Graph

Daily Weather History Graph

Search for Another Location

Airport:

Trip Planner

Search our weather history database for the weather conditions in past years. The results will help you decide how hot, cold, wet, or windy it might be!

Date:

Astronomy

Apr. 02, 2013 Rise Set
Actual Time 6:41 AM EDT 7:24 PM EDT
Civil Twilight 6:13 AM EDT 7:52 PM EDT
Nautical Twilight 5:41 AM EDT 8:25 PM EDT
Astronomical Twilight 5:07 AM EDT 8:58 PM EDT
Moon 1:28 AM EDT (4/2) 11:28 AM EDT (4/2)
Length of Visible Light 13h 38m
Length of Day
12h 43m
Waning Gibbous, 56% of the Moon is Illuminated
Apr 2
Waning Gibbous
Apr 3
Last Quarter
Apr 10
New
Apr 18
First Quarter
Apr 25
Full

Hourly Weather History & Observations

Time (EDT) Temp. Windchill Dew Point Humidity Pressure Visibility Wind Dir Wind Speed Gust Speed Precip Events Conditions
12:53 AM 36.0 °F - 12.0 °F 37% 29.94 in 10.0 mi Calm Calm - N/A   Clear
1:53 AM 35.1 °F 32.2 °F 12.9 °F 40% 29.95 in 10.0 mi NW 3.5 mph - N/A   Clear
2:53 AM 34.0 °F 29.8 °F 12.0 °F 40% 29.94 in 10.0 mi WNW 4.6 mph - N/A   Clear
3:53 AM 34.0 °F 28.8 °F 10.9 °F 38% 29.94 in 10.0 mi NW 5.8 mph - N/A   Clear
4:53 AM 34.0 °F 25.5 °F 10.9 °F 38% 29.94 in 10.0 mi NW 11.5 mph - N/A   Clear
5:53 AM 33.1 °F 26.9 °F 10.9 °F 40% 29.96 in 10.0 mi NW 6.9 mph - N/A   Clear
6:53 AM 32.0 °F 28.7 °F 12.0 °F 44% 29.99 in 10.0 mi NW 3.5 mph - N/A   Clear
7:53 AM 34.0 °F 27.2 °F 12.9 °F 42% 30.01 in 10.0 mi NW 8.1 mph - N/A   Clear
8:53 AM 36.0 °F 29.0 °F 14.0 °F 41% 30.03 in 10.0 mi NNW 9.2 mph 20.7 mph N/A   Clear
9:53 AM 37.9 °F 28.9 °F 12.9 °F 36% 30.03 in 10.0 mi NW 16.1 mph 23.0 mph N/A   Partly Cloudy
10:53 AM 39.0 °F 29.6 °F 10.0 °F 30% 30.04 in 10.0 mi WNW 18.4 mph 31.1 mph N/A   Partly Cloudy
11:53 AM 39.9 °F 30.0 °F 10.0 °F 29% 30.03 in 10.0 mi NW 21.9 mph 31.1 mph N/A   Partly Cloudy
12:53 PM 39.9 °F 30.5 °F 10.9 °F 31% 30.02 in 10.0 mi NW 19.6 mph 28.8 mph N/A   Partly Cloudy
1:53 PM 43.0 °F 35.1 °F 12.0 °F 28% 30.00 in 10.0 mi NW 17.3 mph 25.3 mph N/A   Clear
2:53 PM 43.0 °F 36.8 °F 10.9 °F 27% 29.99 in 10.0 mi WNW 11.5 mph 24.2 mph N/A   Scattered Clouds
3:53 PM 42.1 °F 35.2 °F 10.0 °F 27% 29.98 in 10.0 mi WNW 12.7 mph 32.2 mph N/A   Partly Cloudy
4:53 PM 43.0 °F 36.4 °F 9.0 °F 25% 29.98 in 10.0 mi NW 12.7 mph 26.5 mph N/A   Clear
5:41 PM 44.6 °F 37.8 °F 8.6 °F 23% 30.01 in 10.0 mi West 15.0 mph 25.3 mph N/A   Partly Cloudy
5:53 PM 43.0 °F 35.7 °F 10.0 °F 26% 30.00 in 10.0 mi West 15.0 mph 25.3 mph N/A   Partly Cloudy
6:53 PM 42.1 °F 37.1 °F 10.0 °F 27% 30.02 in 10.0 mi WNW 8.1 mph 18.4 mph N/A   Clear
7:53 PM 41.0 °F 33.9 °F 9.0 °F 27% 30.04 in 10.0 mi NW 12.7 mph 20.7 mph N/A   Clear
9:53 PM 37.9 °F 32.7 °F 10.9 °F 33% 30.08 in 10.0 mi WNW 6.9 mph - N/A   Unknown
10:53 PM 37.9 °F 31.5 °F 12.0 °F 35% 30.09 in 10.0 mi WNW 9.2 mph - N/A   Clear
11:53 PM 37.0 °F 31.6 °F 12.9 °F 37% 30.09 in 10.0 mi WNW 6.9 mph - N/A   Clear